Time,TemperatureF,DewpointF,PressureIn,WindDirection,WindDirectionDegrees,WindSpeedMPH,WindSpeedGustMPH,Humidity,HourlyPrecipIn,Conditions,Clouds,dailyrainin,SoftwareType,DateUTC
2013-03-27 00:02:00,34.0,27.0,30.28,WSW,254,0.0,3.0,76,0.00,,,0.00,,2013-03-27 05:02:00,
2013-03-27 00:12:00,34.0,27.0,30.28,WSW,254,0.0,3.0,76,0.00,,,0.00,,2013-03-27 05:12:00,
2013-03-27 00:23:00,34.0,27.0,30.28,WSW,254,0.0,3.0,76,0.00,,,0.00,,2013-03-27 05:23:00,
2013-03-27 00:33:00,33.0,26.0,30.28,WSW,254,0.0,2.0,76,0.00,,,0.00,,2013-03-27 05:33:00,
2013-03-27 00:42:00,33.0,26.0,30.28,WSW,254,0.0,2.0,76,0.00,,,0.00,,2013-03-27 05:42:00,
2013-03-27 00:52:00,33.0,27.0,30.29,WSW,254,0.0,2.0,77,0.00,,,0.00,,2013-03-27 05:52:00,
2013-03-27 01:02:00,33.0,27.0,30.29,WSW,254,0.0,2.0,77,0.00,,,0.00,,2013-03-27 06:02:00,
2013-03-27 01:12:00,33.0,27.0,30.29,WSW,254,0.0,2.0,77,0.00,,,0.00,,2013-03-27 06:12:00,
2013-03-27 01:22:00,33.0,27.0,30.29,WSW,254,0.0,3.0,77,0.00,,,0.00,,2013-03-27 06:22:00,
2013-03-27 01:32:00,33.0,27.0,30.29,WSW,254,0.0,2.0,77,0.00,,,0.00,,2013-03-27 06:32:00,
2013-03-27 01:42:00,33.0,27.0,30.29,WSW,254,0.0,2.0,77,0.00,,,0.00,,2013-03-27 06:42:00,
2013-03-27 01:52:00,33.0,27.0,30.29,WSW,254,0.0,3.0,78,0.00,,,0.00,,2013-03-27 06:52:00,
2013-03-27 02:02:00,33.0,27.0,30.30,WSW,252,1.0,4.0,78,0.00,,,0.00,,2013-03-27 07:02:00,
2013-03-27 02:12:00,33.0,27.0,30.30,WSW,252,1.0,4.0,78,0.00,,,0.00,,2013-03-27 07:12:00,
2013-03-27 02:22:00,33.0,27.0,30.30,WSW,254,0.0,3.0,78,0.00,,,0.00,,2013-03-27 07:22:00,
2013-03-27 02:32:00,33.0,27.0,30.30,WSW,254,0.0,3.0,78,0.00,,,0.00,,2013-03-27 07:32:00,
2013-03-27 02:42:00,33.0,27.0,30.30,WSW,254,0.0,3.0,78,0.00,,,0.00,,2013-03-27 07:42:00,
2013-03-27 02:53:00,33.0,27.0,30.30,WSW,254,0.0,3.0,78,0.00,,,0.00,,2013-03-27 07:53:00,
2013-03-27 03:02:00,33.0,27.0,30.29,WSW,254,0.0,2.0,78,0.00,,,0.00,,2013-03-27 08:02:00,
2013-03-27 03:12:00,33.0,27.0,30.29,WSW,254,0.0,2.0,78,0.00,,,0.00,,2013-03-27 08:12:00,
2013-03-27 03:22:00,33.0,27.0,30.29,WSW,254,0.0,1.0,79,0.00,,,0.00,,2013-03-27 08:22:00,
2013-03-27 03:32:00,33.0,27.0,30.29,WSW,254,0.0,2.0,79,0.00,,,0.00,,2013-03-27 08:32:00,
2013-03-27 03:43:00,33.0,27.0,30.29,WSW,254,0.0,2.0,79,0.00,,,0.00,,2013-03-27 08:43:00,
2013-03-27 03:52:00,32.0,26.0,30.29,WSW,254,0.0,0.0,79,0.00,,,0.00,,2013-03-27 08:52:00,
2013-03-27 04:02:00,32.0,26.0,30.29,WSW,254,0.0,1.0,79,0.00,,,0.00,,2013-03-27 09:02:00,
2013-03-27 04:12:00,32.0,26.0,30.29,WSW,254,0.0,1.0,79,0.00,,,0.00,,2013-03-27 09:12:00,
2013-03-27 04:22:00,32.0,26.0,30.29,WSW,254,0.0,1.0,78,0.00,,,0.00,,2013-03-27 09:22:00,
2013-03-27 04:32:00,32.0,26.0,30.29,WSW,254,0.0,2.0,77,0.00,,,0.00,,2013-03-27 09:32:00,
2013-03-27 04:42:00,32.0,26.0,30.29,WSW,254,0.0,2.0,77,0.00,,,0.00,,2013-03-27 09:42:00,
2013-03-27 04:52:00,32.0,26.0,30.28,WSW,254,0.0,0.0,77,0.00,,,0.00,,2013-03-27 09:52:00,
2013-03-27 05:02:00,32.0,26.0,30.28,WSW,254,0.0,0.0,77,0.00,,,0.00,,2013-03-27 10:02:00,
2013-03-27 05:12:00,32.0,26.0,30.28,WSW,254,0.0,0.0,77,0.00,,,0.00,,2013-03-27 10:12:00,
2013-03-27 05:23:00,31.0,25.0,30.29,WSW,254,0.0,1.0,77,0.00,,,0.00,,2013-03-27 10:23:00,
2013-03-27 05:32:00,31.0,24.0,30.29,WSW,254,0.0,3.0,76,0.00,,,0.00,,2013-03-27 10:32:00,
2013-03-27 05:42:00,31.0,24.0,30.29,WSW,254,0.0,3.0,76,0.00,,,0.00,,2013-03-27 10:42:00,
2013-03-27 05:52:00,31.0,25.0,30.29,WSW,254,0.0,1.0,77,0.00,,,0.00,,2013-03-27 10:52:00,
2013-03-27 06:02:00,31.0,24.0,30.29,WSW,254,0.0,2.0,76,0.00,,,0.00,,2013-03-27 11:02:00,
2013-03-27 06:12:00,31.0,24.0,30.29,WSW,254,0.0,2.0,76,0.00,,,0.00,,2013-03-27 11:12:00,
2013-03-27 06:22:00,31.0,25.0,30.29,WSW,254,0.0,1.0,77,0.00,,,0.00,,2013-03-27 11:22:00,
2013-03-27 06:32:00,31.0,25.0,30.30,WSW,254,0.0,4.0,78,0.00,,,0.00,,2013-03-27 11:32:00,
2013-03-27 06:42:00,31.0,25.0,30.30,WSW,254,0.0,4.0,78,0.00,,,0.00,,2013-03-27 11:42:00,
2013-03-27 06:52:00,31.0,25.0,30.30,WSW,254,1.0,3.0,79,0.00,,,0.00,,2013-03-27 11:52:00,
2013-03-27 07:02:00,31.0,25.0,30.31,WSW,254,0.0,2.0,79,0.00,,,0.00,,2013-03-27 12:02:00,
2013-03-27 07:12:00,31.0,25.0,30.31,WSW,254,0.0,2.0,79,0.00,,,0.00,,2013-03-27 12:12:00,
2013-03-27 07:23:00,31.0,25.0,30.31,WSW,254,0.0,2.0,79,0.00,,,0.00,,2013-03-27 12:23:00,
2013-03-27 07:32:00,31.0,26.0,30.31,WSW,254,0.0,1.0,80,0.00,,,0.00,,2013-03-27 12:32:00,
2013-03-27 07:43:00,31.0,26.0,30.31,WSW,254,0.0,1.0,80,0.00,,,0.00,,2013-03-27 12:43:00,
2013-03-27 07:52:00,30.0,25.0,30.32,WSW,254,0.0,1.0,81,0.00,,,0.00,,2013-03-27 12:52:00,
2013-03-27 08:02:00,31.0,26.0,30.32,WSW,254,0.0,1.0,81,0.00,,,0.00,,2013-03-27 13:02:00,
2013-03-27 08:12:00,31.0,26.0,30.32,WSW,254,0.0,1.0,81,0.00,,,0.00,,2013-03-27 13:12:00,
2013-03-27 08:22:00,31.0,26.0,30.32,WSW,254,0.0,3.0,81,0.00,,,0.00,,2013-03-27 13:22:00,
2013-03-27 08:32:00,32.0,27.0,30.33,WSW,254,1.0,4.0,81,0.00,,,0.00,,2013-03-27 13:32:00,
2013-03-27 08:42:00,32.0,27.0,30.33,WSW,254,1.0,4.0,81,0.00,,,0.00,,2013-03-27 13:42:00,
2013-03-27 08:52:00,32.0,27.0,30.33,WSW,250,1.0,5.0,81,0.00,,,0.00,,2013-03-27 13:52:00,
2013-03-27 09:02:00,33.0,28.0,30.33,WSW,250,2.0,4.0,80,0.00,,,0.00,,2013-03-27 14:02:00,
2013-03-27 09:12:00,33.0,28.0,30.33,WSW,250,2.0,4.0,80,0.00,,,0.00,,2013-03-27 14:12:00,
2013-03-27 09:22:00,33.0,27.0,30.33,WSW,250,3.0,5.0,79,0.00,,,0.00,,2013-03-27 14:22:00,
2013-03-27 09:32:00,34.0,28.0,30.33,WSW,254,1.0,6.0,78,0.00,,,0.00,,2013-03-27 14:32:00,
2013-03-27 09:42:00,34.0,28.0,30.33,WSW,254,1.0,6.0,78,0.00,,,0.00,,2013-03-27 14:42:00,
2013-03-27 09:52:00,35.0,28.0,30.33,WSW,254,2.0,5.0,76,0.00,,,0.00,,2013-03-27 14:52:00,
2013-03-27 10:02:00,36.0,28.0,30.33,West,259,3.0,7.0,72,0.00,,,0.00,,2013-03-27 15:02:00,
2013-03-27 10:12:00,36.0,28.0,30.33,West,259,3.0,7.0,72,0.00,,,0.00,,2013-03-27 15:12:00,
2013-03-27 10:22:00,37.0,29.0,30.34,NNW,348,3.0,6.0,72,0.00,,,0.00,,2013-03-27 15:22:00,
2013-03-27 10:33:00,38.0,28.0,30.33,NNW,346,3.0,9.0,66,0.00,,,0.00,,2013-03-27 15:33:00,
2013-03-27 10:42:00,38.0,28.0,30.33,NNW,346,3.0,9.0,66,0.00,,,0.00,,2013-03-27 15:42:00,
2013-03-27 10:52:00,39.0,27.0,30.34,West,273,5.0,11.0,63,0.00,,,0.00,,2013-03-27 15:52:00,
2013-03-27 11:02:00,39.0,27.0,30.34,North,355,4.0,9.0,61,0.00,,,0.00,,2013-03-27 16:02:00,
2013-03-27 11:13:00,39.0,27.0,30.34,North,355,4.0,9.0,61,0.00,,,0.00,,2013-03-27 16:13:00,
2013-03-27 11:22:00,40.0,25.0,30.34,NNW,344,5.0,9.0,55,0.00,,,0.00,,2013-03-27 16:22:00,
2013-03-27 11:32:00,39.0,24.0,30.35,NNW,334,5.0,9.0,55,0.00,,,0.00,,2013-03-27 16:32:00,
2013-03-27 11:42:00,39.0,24.0,30.35,NNW,334,5.0,9.0,55,0.00,,,0.00,,2013-03-27 16:42:00,
2013-03-27 11:52:00,40.0,25.0,30.35,NW,315,4.0,9.0,54,0.00,,,0.00,,2013-03-27 16:52:00,
2013-03-27 12:03:00,40.0,21.0,30.34,North,355,2.0,7.0,47,0.00,,,0.00,,2013-03-27 17:03:00,
2013-03-27 12:12:00,40.0,21.0,30.34,North,355,2.0,7.0,47,0.00,,,0.00,,2013-03-27 17:12:00,
2013-03-27 12:22:00,40.0,22.0,30.35,NNW,327,4.0,12.0,49,0.00,,,0.00,,2013-03-27 17:22:00,
2013-03-27 12:32:00,40.0,24.0,30.34,West,271,4.0,8.0,52,0.00,,,0.00,,2013-03-27 17:32:00,
2013-03-27 12:44:00,40.0,24.0,30.34,West,271,4.0,8.0,52,0.00,,,0.00,,2013-03-27 17:44:00,
2013-03-27 12:52:00,40.0,23.0,30.34,NW,322,4.0,10.0,51,0.00,,,0.00,,2013-03-27 17:52:00,
2013-03-27 13:02:00,41.0,23.0,30.34,NW,316,1.0,10.0,48,0.00,,,0.00,,2013-03-27 18:02:00,
2013-03-27 13:12:00,41.0,23.0,30.34,NW,316,1.0,10.0,48,0.00,,,0.00,,2013-03-27 18:12:00,
2013-03-27 13:22:00,41.0,23.0,30.33,NW,324,3.0,7.0,48,0.00,,,0.00,,2013-03-27 18:22:00,
2013-03-27 13:32:00,41.0,22.0,30.33,NW,325,3.0,12.0,47,0.00,,,0.00,,2013-03-27 18:32:00,
2013-03-27 13:42:00,41.0,22.0,30.33,NW,325,3.0,12.0,47,0.00,,,0.00,,2013-03-27 18:42:00,
2013-03-27 13:52:00,42.0,22.0,30.33,NNW,332,3.0,9.0,45,0.00,,,0.00,,2013-03-27 18:52:00,
2013-03-27 14:02:00,42.0,22.0,30.32,NW,322,5.0,9.0,44,0.00,,,0.00,,2013-03-27 19:02:00,
2013-03-27 14:12:00,42.0,22.0,30.32,NW,322,5.0,9.0,44,0.00,,,0.00,,2013-03-27 19:12:00,
2013-03-27 14:22:00,42.0,23.0,30.32,NNW,341,3.0,7.0,46,0.00,,,0.00,,2013-03-27 19:22:00,
2013-03-27 14:32:00,41.0,22.0,30.32,NNW,329,3.0,7.0,47,0.00,,,0.00,,2013-03-27 19:32:00,
2013-03-27 14:42:00,41.0,22.0,30.32,NNW,329,3.0,7.0,47,0.00,,,0.00,,2013-03-27 19:42:00,
2013-03-27 14:52:00,41.0,24.0,30.32,NNW,327,3.0,6.0,50,0.00,,,0.00,,2013-03-27 19:52:00,
2013-03-27 15:02:00,41.0,22.0,30.32,NW,326,0.0,6.0,46,0.00,,,0.00,,2013-03-27 20:02:00,
2013-03-27 15:12:00,41.0,22.0,30.32,NW,326,0.0,6.0,46,0.00,,,0.00,,2013-03-27 20:12:00,
2013-03-27 15:22:00,42.0,23.0,30.31,West,263,3.0,10.0,47,0.00,,,0.00,,2013-03-27 20:22:00,
2013-03-27 15:32:00,42.0,23.0,30.31,NW,326,1.0,8.0,46,0.00,,,0.00,,2013-03-27 20:32:00,
2013-03-27 15:42:00,42.0,23.0,30.31,NW,326,1.0,8.0,46,0.00,,,0.00,,2013-03-27 20:42:00,
2013-03-27 15:52:00,42.0,23.0,30.30,WSW,256,3.0,7.0,47,0.00,,,0.00,,2013-03-27 20:52:00,
2013-03-27 16:02:00,42.0,23.0,30.30,NNW,333,4.0,7.0,47,0.00,,,0.00,,2013-03-27 21:02:00,
2013-03-27 16:12:00,42.0,23.0,30.30,NNW,333,4.0,7.0,47,0.00,,,0.00,,2013-03-27 21:12:00,
2013-03-27 16:22:00,42.0,24.0,30.30,NW,315,2.0,6.0,49,0.00,,,0.00,,2013-03-27 21:22:00,
2013-03-27 16:32:00,42.0,24.0,30.30,NW,315,2.0,6.0,49,0.00,,,0.00,,2013-03-27 21:32:00,
2013-03-27 16:43:00,42.0,24.0,30.30,NW,315,2.0,6.0,49,0.00,,,0.00,,2013-03-27 21:43:00,
2013-03-27 16:52:00,42.0,24.0,30.29,NNW,337,3.0,7.0,49,0.00,,,0.00,,2013-03-27 21:52:00,
2013-03-27 17:03:00,42.0,25.0,30.29,NW,323,1.0,5.0,50,0.00,,,0.00,,2013-03-27 22:03:00,
2013-03-27 17:12:00,42.0,25.0,30.29,NW,323,1.0,5.0,50,0.00,,,0.00,,2013-03-27 22:12:00,
2013-03-27 17:23:00,42.0,25.0,30.29,NNW,339,4.0,7.0,51,0.00,,,0.00,,2013-03-27 22:23:00,
2013-03-27 17:33:00,42.0,25.0,30.29,NW,316,2.0,5.0,51,0.00,,,0.00,,2013-03-27 22:33:00,
2013-03-27 17:42:00,42.0,25.0,30.29,NW,316,2.0,5.0,51,0.00,,,0.00,,2013-03-27 22:42:00,
2013-03-27 17:52:00,42.0,25.0,30.29,WNW,295,3.0,5.0,50,0.00,,,0.00,,2013-03-27 22:52:00,
2013-03-27 18:02:00,42.0,26.0,30.29,NW,326,2.0,5.0,52,0.00,,,0.00,,2013-03-27 23:02:00,
2013-03-27 18:12:00,42.0,26.0,30.29,NW,326,2.0,5.0,52,0.00,,,0.00,,2013-03-27 23:12:00,
2013-03-27 18:22:00,42.0,26.0,30.29,NNW,340,2.0,6.0,52,0.00,,,0.00,,2013-03-27 23:22:00,
2013-03-27 18:32:00,42.0,27.0,30.28,NW,325,1.0,4.0,54,0.00,,,0.00,,2013-03-27 23:32:00,
2013-03-27 18:42:00,42.0,27.0,30.28,NW,325,1.0,4.0,54,0.00,,,0.00,,2013-03-27 23:42:00,
2013-03-27 18:52:00,43.0,26.0,30.28,NNW,335,2.0,4.0,50,0.00,,,0.00,,2013-03-27 23:52:00,
2013-03-27 19:02:00,42.0,26.0,30.28,NNW,333,0.0,3.0,52,0.00,,,0.00,,2013-03-28 00:02:00,
2013-03-27 19:12:00,42.0,26.0,30.28,NNW,333,0.0,3.0,52,0.00,,,0.00,,2013-03-28 00:12:00,
2013-03-27 19:22:00,42.0,26.0,30.29,NNW,333,0.0,1.0,52,0.00,,,0.00,,2013-03-28 00:22:00,
2013-03-27 19:32:00,41.0,25.0,30.28,NNW,333,0.0,0.0,53,0.00,,,0.00,,2013-03-28 00:32:00,
2013-03-27 19:42:00,41.0,25.0,30.28,NNW,333,0.0,0.0,53,0.00,,,0.00,,2013-03-28 00:42:00,
2013-03-27 19:52:00,40.0,26.0,30.29,NNW,333,0.0,0.0,56,0.00,,,0.00,,2013-03-28 00:52:00,
2013-03-27 20:02:00,39.0,26.0,30.29,NNW,333,0.0,1.0,60,0.00,,,0.00,,2013-03-28 01:02:00,
2013-03-27 20:12:00,39.0,26.0,30.29,NNW,333,0.0,1.0,60,0.00,,,0.00,,2013-03-28 01:12:00,
2013-03-27 20:22:00,37.0,26.0,30.29,NNW,333,0.0,0.0,64,0.00,,,0.00,,2013-03-28 01:22:00,
2013-03-27 20:32:00,35.0,26.0,30.29,NNW,333,0.0,0.0,68,0.00,,,0.00,,2013-03-28 01:32:00,
2013-03-27 20:42:00,35.0,26.0,30.29,NNW,333,0.0,0.0,68,0.00,,,0.00,,2013-03-28 01:42:00,
2013-03-27 20:53:00,34.0,26.0,30.30,NNW,333,0.0,1.0,72,0.00,,,0.00,,2013-03-28 01:53:00,
2013-03-27 21:02:00,33.0,25.0,30.30,NNW,333,0.0,0.0,73,0.00,,,0.00,,2013-03-28 02:02:00,
2013-03-27 21:12:00,33.0,25.0,30.30,NNW,333,0.0,0.0,73,0.00,,,0.00,,2013-03-28 02:12:00,
2013-03-27 21:22:00,32.0,25.0,30.30,NNW,333,0.0,0.0,74,0.00,,,0.00,,2013-03-28 02:22:00,
2013-03-27 21:32:00,33.0,26.0,30.31,NNW,333,0.0,1.0,74,0.00,,,0.00,,2013-03-28 02:32:00,
2013-03-27 21:42:00,33.0,26.0,30.31,NNW,333,0.0,1.0,74,0.00,,,0.00,,2013-03-28 02:42:00,
2013-03-27 21:52:00,33.0,26.0,30.31,NNW,333,0.0,1.0,74,0.00,,,0.00,,2013-03-28 02:52:00,
2013-03-27 22:02:00,33.0,25.0,30.31,NNW,333,0.0,2.0,72,0.00,,,0.00,,2013-03-28 03:02:00,
2013-03-27 22:12:00,33.0,25.0,30.31,NNW,333,0.0,2.0,72,0.00,,,0.00,,2013-03-28 03:12:00,
2013-03-27 22:22:00,31.0,24.0,30.32,NNW,333,0.0,1.0,76,0.00,,,0.00,,2013-03-28 03:22:00,
2013-03-27 22:33:00,31.0,25.0,30.32,NNW,333,0.0,1.0,78,0.00,,,0.00,,2013-03-28 03:33:00,
2013-03-27 22:43:00,31.0,25.0,30.32,NNW,333,0.0,1.0,78,0.00,,,0.00,,2013-03-28 03:43:00,
2013-03-27 22:53:00,30.0,24.0,30.32,NNW,333,0.0,1.0,77,0.00,,,0.00,,2013-03-28 03:53:00,
2013-03-27 23:02:00,30.0,24.0,30.32,NNW,333,0.0,1.0,79,0.00,,,0.00,,2013-03-28 04:02:00,
2013-03-27 23:12:00,30.0,24.0,30.32,NNW,333,0.0,1.0,79,0.00,,,0.00,,2013-03-28 04:12:00,
2013-03-27 23:23:00,30.0,25.0,30.32,NNW,333,0.0,2.0,80,0.00,,,0.00,,2013-03-28 04:23:00,
2013-03-27 23:32:00,30.0,25.0,30.33,NNW,333,0.0,0.0,80,0.00,,,0.00,,2013-03-28 04:32:00,
2013-03-27 23:42:00,30.0,25.0,30.33,NNW,333,0.0,0.0,80,0.00,,,0.00,,2013-03-28 04:42:00,
2013-03-27 23:52:00,30.0,25.0,30.32,NNW,333,0.0,1.0,80,0.00,,,0.00,,2013-03-28 04:52:00,